Ana Sayfa
METAR-TAF:

METAR-TAF

Havaalanları :

Nakşa, Yunanistan

Enlem: 37-04-47N, Boylam: 025-22-01E, yükseklik: 3 m

Güncel hava durumu gözlemi

Rapor saat 14:50 UTC de 1 saat ve 1 dakika önce yapıldı.
Rüzgar kuzeydan 11 kt ve 22 kt'a kadar ani rüzgarlar
Sıcaklık 23°C
Nem 65%
Basınç 1011 hPa
Görüş mesafesi 10 km veya daha fazla
2500 ft yükseklikte az bulutlu

METAR: LGNX 261450Z 35011G22KT 9999 FEW025 23/16 Q1011

Saat: 18:51 (15:51 UTC)


TAF: eksik

4.000'den fazla havaalanı için hava durumu gözlemleri ve tahminleri (METAR ve TAF raporları).

Kullanılabilir istasyonlar harita üzerinde sarı ve kırmızı noktalarla gösterilir.

İstasyonun adını görmek için fareyi noktanın üzerinde gezdirin.

Sonrasında hava gözlem ve tahminlerini görmek için tıklayın.

Haritayı değiştirmek için: yaklaştırmak için siyah artı işaretli yeşil düğmeye ve uzaklaştırmak için de eksi işaretli düğmeye hızla tıklayın; bitişik haritalar için yeşil okları kullanın.


METAR-TAF: